CAPE
0 0 0 0 0 0 0 0 0 0 0 0 0 0 0 0 0 0 0 0 0 0 0 0 0 0 0 0 0 0 0 0 0 0 0 0 0 0 0 293 2 42 609 646 1457
0 0 0 0 0 0 0 0 0 0 0 0 0 0 0 0 0 0 0 0 0 0 0 0 0 0 0 0 0 0 0 0 0 0 0 0 1 0 76 157 53 3 51 62 1512
0 0 0 0 0 0 0 0 0 0 0 0 0 0 0 0 0 0 0 0 0 0 0 0 0 0 0 0 0 0 0 0 0 0 0 0 0 0 0 0 60 208 1 1476 1997
0 0 0 0 0 0 0 0 0 0 0 0 0 0 0 0 0 0 0 0 0 0 0 0 0 0 0 0 0 0 0 0 0 0 0 0 0 0 0 0 0 0 0 891 2076
0 0 0 0 0 0 0 0 0 0 0 0 0 0 0 0 0 0 0 0 0 0 0 0 0 0 0 0 0 0 0 0 0 0 0 0 0 0 0 0 1 0 0 0 439
0 0 0 0 0 0 0 0 0 0 0 0 0 0 0 0 0 0 0 0 0 0 0 0 0 0 0 0 0 0 0 0 0 0 0 0 0 0 0 0 0 0 0 0 0
0 0 0 0 0 0 0 0 0 0 0 0 0 0 0 0 0 0 0 0 0 0 0 0 0 0 0 0 0 0 0 0 0 0 0 0 0 0 0 0 0 0 0 0 0
0 0 0 0 0 0 0 0 0 0 0 0 0 0 0 0 0 0 0 0 0 0 0 0 0 0 0 0 0 0 0 2 5 0 0 0 0 0 0 0 0 0 0 0 0
0 0 0 0 0 0 0 0 0 0 0 0 0 0 0 0 0 0 0 0 0 0 0 0 0 0 0 0 0 0 0 0 0 0 0 0 0 0 0 0 0 0 0 0 15
0 0 0 0 0 0 0 0 0 0 0 0 0 0 0 0 0 0 0 0 0 0 0 0 0 0 0 0 0 0 0 0 0 0 0 0 0 0 0 0 0 0 4 107 264
0 0 0 0 0 0 0 0 0 0 0 0 0 0 0 0 0 0 0 0 0 0 0 0 0 0 0 0 0 0 0 0 0 0 0 0 0 0 0 0 0 0 171 304 428
0 0 0 0 0 0 0 0 0 0 0 0 0 0 0 0 0 0 0 0 0 0 0 0 0 0 0 0 0 0 0 0 0 0 0 0 0 0 0 0 0 155 344 438 270
0 0 0 0 0 0 0 0 0 0 0 0 0 0 0 0 0 0 0 0 0 0 0 0 0 0 0 0 0 0 0 0 0 0 0 0 0 0 0 1 100 228 254 170 78
0 0 0 0 0 0 0 0 0 0 0 0 0 0 0 0 0 0 0 0 0 0 0 0 0 0 0 0 0 0 0 0 0 0 0 0 0 0 0 11 55 62 33 4 0
0 0 0 0 0 0 0 0 0 0 0 0 0 0 0 0 0 0 0 0 0 0 0 0 0 0 0 0 0 0 0 0 0 0 0 0 0 0 0 7 0 0 0 0 0
0 0 0 0 0 0 0 0 0 0 0 0 0 0 0 0 0 0 0 0 0 0 0 0 0 0 0 0 0 0 0 0 0 0 0 0 0 0 0 0 0 0 0 0 0
0 0 0 0 0 0 0 0 0 0 0 0 0 0 0 0 0 0 0 0 0 0 0 0 0 0 0 0 0 0 0 0 0 0 0 0 0 0 0 0 0 0 0 0 0
0 0 0 0 0 0 0 0 0 0 0 0 0 0 0 0 0 0 0 0 0 0 0 0 0 0 0 0 0 0 0 0 0 0 0 0 0 0 0 0 0 0 0 0 0
0 0 0 0 0 0 0 0 0 0 0 0 0 0 0 0 0 0 0 0 0 0 0 0 0 0 0 0 0 0 0 0 0 0 0 0 0 0 0 0 0 0 0 0 0
0 0 0 0 0 0 0 0 0 0 0 0 0 0 0 0 0 0 0 0 0 0 0 0 0 0 0 0 0 0 0 0 0 0 0 0 0 0 0 0 0 0 0 0 0
0 0 0 0 0 0 0 0 0 0 0 0 0 0 0 0 0 0 0 0 0 0 0 0 0 0 0 0 0 0 0 0 0 0 0 0 0 0 0 0 0 0 0 0 0
0 0 0 0 0 0 0 0 0 0 0 0 0 0 0 0 0 0 0 0 0 0 0 0 0 0 0 0 0 0 0 0 0 0 0 0 0 0 0 0 0 0 0 0 0
0 0 0 0 0 0 0 0 0 0 0 0 0 0 0 0 0 0 0 0 0 0 0 0 0 0 0 0 0 0 0 0 0 0 0 0 0 0 0 0 0 0 0 0 0
0 0 0 0 0 0 0 0 0 0 0 0 0 0 0 0 0 0 0 0 0 0 0 0 0 0 0 0 0 0 0 0 0 0 0 0 0 0 0 0 0 0 0 0 0
0 0 0 0 0 0 0 0 0 0 0 0 0 0 0 0 0 0 0 0 0 0 0 0 0 0 0 0 0 0 0 0 0 0 0 0 0 0 0 0 0 0 0 0 0
0 0 0 0 0 0 0 0 0 0 0 0 0 0 0 0 0 0 0 0 0 0 0 0 0 0 0 0 0 0 0 0 0 0 0 0 0 0 0 0 0 0 0 0 0
0 0 0 0 0 0 0 0 0 0 0 0 0 0 0 0 0 0 0 0 0 0 0 0 0 0 0 0 0 0 0 0 0 0 0 0 0 0 0 0 0 0 0 0 0
CIN
0 0 0 0 0 0 0 0 0 0 0 0 0 0 0 0 0 0 0 0 0 0 0 0 0 0 0 0 0 0 0 0 0 0 0 0 0 0 0 -123 -75 -251 -107 -86 -190
0 0 0 0 0 0 0 0 0 0 0 0 0 0 0 0 0 0 0 0 0 0 0 0 0 0 0 0 0 0 0 0 0 0 0 0 0 0 -106 -115 -139 -89 -176 -217 -211
0 0 0 0 0 0 0 0 0 0 0 0 0 0 0 0 0 0 0 0 0 0 0 0 0 0 0 0 0 0 0 0 0 0 0 0 0 0 0 0 -41 -60 -11 -92 -137
0 0 0 0 0 0 0 0 0 0 0 0 0 0 0 0 0 0 0 0 0 0 0 0 0 0 0 0 0 0 0 0 0 0 0 0 0 0 0 0 0 0 0 -95 -89
0 0 0 0 0 0 0 0 0 0 0 0 0 0 0 0 0 0 0 0 0 0 0 0 0 0 0 0 0 0 0 0 0 0 0 0 0 -11 0 0 -22 0 0 0 -87
0 0 0 0 0 0 0 0 0 0 0 0 0 0 0 0 0 0 0 0 0 0 0 0 0 0 0 0 0 0 0 0 0 0 0 0 0 0 0 -6 0 0 0 0 0
0 0 0 0 0 0 0 0 0 0 0 0 0 0 0 0 0 0 0 0 0 0 0 0 0 0 0 0 0 0 0 0 0 0 0 0 0 0 0 0 0 0 0 0 0
0 0 0 0 0 0 0 0 0 0 0 0 0 0 0 0 0 0 0 0 0 0 0 0 0 0 0 0 0 0 0 -58 -38 0 0 0 0 0 0 0 0 0 0 0 0
0 0 0 0 0 0 0 0 0 0 0 0 0 0 0 0 0 0 0 0 0 0 0 0 0 0 0 0 0 0 0 0 0 0 0 0 0 0 0 0 0 0 0 0 -323
0 0 0 0 0 0 0 0 0 0 0 0 0 0 0 0 0 0 0 0 0 0 0 0 0 0 0 0 0 0 0 0 0 0 0 0 0 0 0 0 0 0 -266 -323 -333
0 0 0 0 0 0 0 0 0 0 0 0 0 0 0 0 0 0 0 0 0 0 0 0 0 0 0 0 0 0 0 0 0 0 0 0 0 0 0 0 0 -26 -343 -345 -362
0 0 0 0 0 0 0 0 0 0 0 0 0 0 0 0 0 0 0 0 0 0 0 0 0 0 0 0 0 0 0 0 0 0 0 0 0 0 0 0 -98 -364 -317 -293 -344
0 0 0 0 0 0 0 0 0 0 0 0 0 0 0 0 0 0 0 0 0 0 0 0 0 0 0 0 0 0 0 0 0 0 0 0 0 0 0 -281 -424 -319 -261 -310 -370
0 0 0 0 0 0 0 0 0 0 0 0 0 0 0 0 0 0 0 0 0 0 0 0 0 0 0 0 0 0 0 0 0 0 0 0 0 0 0 -445 -371 -328 -379 -78 0
0 0 0 0 0 0 0 0 0 0 0 0 0 0 0 0 0 0 0 0 0 0 0 0 0 0 0 0 0 0 0 0 0 0 0 0 0 0 0 -436 0 0 0 0 0
0 0 0 0 0 0 0 0 0 0 0 0 0 0 0 0 0 0 0 0 0 0 0 0 0 0 0 0 0 0 0 0 0 0 0 0 0 0 0 0 0 0 0 0 0
0 0 0 0 0 0 0 0 0 0 0 0 0 0 0 0 0 0 0 0 0 0 0 0 0 0 0 0 0 0 0 0 0 0 0 0 0 0 0 0 0 0 0 0 0
0 0 0 0 0 0 0 0 0 0 0 0 0 0 0 0 0 0 0 0 0 0 0 0 0 0 0 0 0 0 0 0 0 0 0 0 0 0 0 0 0 0 0 0 0
0 0 0 0 0 0 0 0 0 0 0 0 0 0 0 0 0 0 0 0 0 0 0 0 0 0 0 0 0 0 0 0 0 0 0 0 0 0 0 0 0 0 0 0 0
0 0 0 0 0 0 0 0 0 0 0 0 0 0 0 0 0 0 0 0 0 0 0 0 0 0 0 0 0 0 0 0 0 0 0 0 0 0 0 0 0 0 0 0 0
0 0 0 0 0 0 0 0 0 0 0 0 0 0 0 0 0 0 0 0 0 0 0 0 0 0 0 0 0 0 0 0 0 0 0 0 0 0 0 0 0 0 0 0 0
0 0 0 0 0 0 0 0 0 0 0 0 0 0 0 0 0 0 0 0 0 0 0 0 0 0 0 0 0 0 0 0 0 0 0 0 0 0 0 0 0 0 0 0 0
0 0 0 0 0 0 0 0 0 0 0 0 0 0 0 0 0 0 0 0 0 0 0 0 0 0 0 0 0 0 0 0 0 0 0 0 0 0 0 0 0 0 0 0 0
0 0 0 0 0 0 0 0 0 0 0 0 0 0 0 0 0 0 0 0 0 0 0 0 0 0 0 0 0 0 0 0 0 0 0 0 0 0 0 0 0 0 0 0 0
0 0 0 0 0 0 0 0 0 0 0 0 0 0 0 0 0 0 0 0 0 0 0 0 0 0 0 0 0 0 0 0 0 0 0 0 0 0 0 0 0 0 0 0 0
0 0 0 0 0 0 0 0 0 0 0 0 0 0 0 0 0 0 0 0 0 0 0 0 0 0 0 0 0 0 0 0 0 0 0 0 0 0 0 0 0 0 0 0 0
0 0 0 0 0 0 0 0 0 0 0 0 0 0 0 0 0 0 0 0 0 0 0 0 0 0 0 0 0 0 0 0 0 0 0 0 0 0 0 0 0 0 0 0 0
Wind_Speed
19 19 19 19 20 20 20 20 20 20 20 21 21 22 22 23 24 20 21 15 16 17 20 17 15 15 12 12 12 12 18 18 19 15 16 18 16 16 11 7 9 11 14 10 13
20 19 19 19 19 19 19 19 19 19 19 20 20 20 21 22 20 18 16 13 12 17 16 16 15 14 12 12 12 13 17 18 18 17 18 18 13 13 11 12 11 14 19 21 4
21 20 19 19 18 18 18 17 17 17 18 18 19 19 20 20 15 17 18 12 10 12 14 15 15 13 12 12 12 13 17 18 20 19 19 18 21 17 13 11 10 9 14 9 3
20 20 19 18 17 17 17 17 17 17 17 17 18 18 20 17 14 18 19 13 8 12 14 14 13 13 12 13 14 17 18 18 21 20 22 22 16 24 24 17 16 13 12 5 6
21 20 19 18 18 17 17 17 17 17 17 17 18 19 17 16 15 16 17 16 13 12 12 13 11 12 12 13 15 18 23 21 23 23 28 22 21 16 20 31 21 20 15 18 18
22 21 20 19 19 18 18 18 18 18 17 17 18 19 17 15 15 15 15 15 15 15 13 10 11 12 14 13 15 18 22 24 24 24 27 29 28 19 20 12 19 22 27 18 16
23 21 19 19 19 19 19 19 19 18 17 17 18 19 16 14 14 14 14 15 15 14 15 11 12 14 13 10 17 20 23 24 25 26 27 23 28 28 24 9 20 25 33 29 29
24 22 20 18 18 18 18 18 18 17 16 16 17 17 16 15 16 13 13 15 13 12 12 13 12 13 12 14 18 18 19 23 22 22 20 16 29 27 5 14 21 26 23 25 23
26 24 22 20 19 19 19 18 12 12 14 15 17 17 16 19 17 16 11 14 15 14 12 13 14 13 13 11 10 17 17 21 20 20 21 18 24 25 26 17 17 12 14 19 16
29 26 24 22 22 21 21 20 17 15 15 16 15 16 14 19 19 16 13 12 14 14 14 14 14 11 11 10 5 5 16 20 23 22 23 23 29 33 29 13 5 7 9 10 11
31 28 26 24 23 22 22 19 21 17 18 14 15 16 21 18 17 15 14 15 14 14 13 15 12 7 7 5 5 10 22 27 29 30 25 23 21 25 22 11 10 9 7 9 11
33 30 28 25 24 22 18 18 18 18 20 20 6 11 11 15 16 16 13 15 16 15 14 14 8 8 9 8 5 6 19 27 27 21 18 14 18 20 19 16 8 7 8 10 11
35 32 30 26 24 15 17 17 17 18 17 17 12 12 13 13 14 16 13 14 16 17 16 12 9 9 7 10 8 12 8 17 18 20 17 15 17 19 18 15 10 9 9 11 12
36 34 31 27 16 17 15 17 22 14 17 14 13 13 11 14 16 14 12 14 17 18 17 15 18 16 14 15 11 11 14 15 17 18 20 20 21 20 18 15 12 11 11 12 13
37 35 32 22 16 15 16 22 15 15 15 14 13 14 12 11 15 17 15 15 17 18 17 17 18 17 16 16 13 12 16 17 18 19 19 24 21 25 20 17 16 14 13 14 14
38 35 30 17 15 13 20 18 15 15 14 15 13 12 11 13 15 15 16 17 17 17 16 16 16 17 16 16 18 15 16 20 20 19 18 25 21 25 21 17 13 11 12 13 15
39 35 24 15 15 15 17 15 14 13 16 15 14 12 11 12 14 15 16 19 19 17 19 17 17 18 19 15 19 17 17 21 19 17 16 19 18 20 17 14 13 11 12 14 16
38 32 19 13 14 16 14 12 12 12 14 17 16 12 11 10 14 14 14 16 20 17 17 16 15 20 23 18 17 19 17 16 20 16 14 19 14 14 11 11 12 13 14 16 19
36 26 18 17 6 13 12 12 10 10 16 18 14 13 15 14 11 13 15 15 19 18 16 18 15 18 19 17 16 16 17 15 15 17 16 14 14 11 11 12 14 17 19 21 23
31 23 17 17 9 12 12 14 12 11 17 15 14 15 15 16 14 13 14 15 16 18 17 17 19 16 17 16 19 16 13 16 17 17 19 16 12 12 9 14 18 21 23 25 27
24 16 17 14 13 14 16 15 16 15 13 14 14 14 14 15 15 16 15 15 16 17 18 18 17 17 17 19 18 17 16 17 14 13 14 14 15 10 5 12 19 23 26 28 31
23 15 18 11 14 16 17 15 16 18 14 14 13 14 15 16 16 17 15 17 18 17 18 18 18 18 15 16 16 16 17 16 15 15 15 15 16 11 9 14 20 26 29 31 34
25 17 16 12 14 17 19 18 14 15 14 14 15 16 16 17 19 17 15 17 16 17 17 16 20 19 17 17 17 18 20 17 16 17 16 17 18 12 13 16 21 27 31 33 37
21 19 17 15 14 17 19 15 10 13 13 14 14 15 16 18 18 16 15 16 16 15 17 17 19 18 16 17 17 19 21 20 18 20 20 19 19 14 16 20 25 30 34 36 40
21 18 16 19 16 21 17 16 12 10 13 15 15 16 16 17 16 15 13 12 15 16 17 17 19 17 16 17 17 17 19 19 18 19 21 23 22 15 18 24 29 32 34 38 41
21 20 20 19 20 20 16 15 11 10 12 16 14 14 15 16 15 12 12 13 15 16 16 18 17 17 18 17 20 18 17 17 18 18 19 18 20 15 18 22 29 33 35 38 41
19 18 18 19 20 18 17 16 13 11 15 13 11 15 16 14 13 13 14 14 15 14 14 16 16 18 20 19 20 19 16 17 18 18 18 21 18 17 22 27 31 31 33 36 38
Wind_Direction
312 305 298 295 298 301 301 297 296 294 295 295 296 297 299 298 296 313 301 319 319 304 304 307 313 311 309 310 316 317 294 284 282 290 299 315 318 336 349 322 310 286 298 298 272
319 310 304 297 294 294 294 291 293 295 296 297 297 298 300 304 314 317 327 336 328 315 316 312 311 312 306 301 304 297 288 285 287 290 302 309 305 320 334 321 306 281 285 273 292
324 315 309 304 300 295 289 283 278 276 281 288 296 299 300 306 327 332 330 354 354 339 331 323 319 315 303 298 296 295 285 286 287 285 293 304 283 303 316 304 326 300 294 293 278
327 321 316 311 306 300 295 292 289 285 284 286 295 299 300 326 341 339 334 3 27 351 346 343 336 323 309 292 289 287 286 285 286 287 282 290 298 276 283 284 315 311 301 314 291
329 323 320 315 311 305 298 294 298 297 296 301 308 311 332 342 353 353 9 25 27 5 354 350 347 340 320 310 294 283 280 283 283 284 278 288 292 286 262 261 286 293 306 285 284
328 323 318 315 311 306 299 294 295 299 304 309 317 322 341 349 359 13 22 23 19 17 8 17 15 8 336 315 301 291 283 279 283 285 285 285 269 284 285 256 287 281 281 286 300
323 317 310 307 306 301 296 290 288 300 316 326 333 341 344 0 4 10 30 18 26 32 24 48 38 16 13 352 301 298 287 283 279 288 290 295 276 275 283 277 253 288 277 285 294
320 311 304 294 293 292 286 271 258 295 334 348 351 352 343 5 347 3 23 13 34 43 41 41 49 38 49 338 307 304 300 284 283 293 298 311 281 283 265 280 301 287 272 296 293
323 312 302 294 288 289 287 274 209 57 14 8 347 343 339 318 349 355 31 16 17 28 45 36 35 37 40 49 15 311 307 288 286 289 303 300 295 304 295 277 281 285 293 292 314
326 317 303 294 291 294 303 1 22 19 9 8 353 339 338 329 329 4 21 15 8 18 22 24 28 41 45 42 78 90 319 291 278 288 298 295 294 310 309 281 232 278 313 318 326
326 318 308 294 291 294 337 355 335 342 346 353 347 340 282 336 350 6 21 13 5 359 5 9 20 77 109 109 78 346 293 276 269 279 289 297 313 323 321 311 278 289 326 359 341
325 319 310 299 288 303 360 359 8 350 320 310 84 20 30 1 6 360 11 6 9 14 34 22 69 99 61 54 89 7 307 280 280 294 295 314 324 330 338 320 324 332 337 354 345
323 318 312 299 295 359 343 1 5 351 348 336 11 7 6 34 14 349 28 13 6 7 11 39 52 30 66 50 37 345 348 304 299 300 306 300 305 324 321 340 344 347 351 3 358
320 316 312 299 350 343 353 0 304 31 340 345 353 356 15 1 348 1 12 3 358 357 8 19 5 16 34 19 22 21 330 321 310 304 296 301 284 312 313 327 344 344 348 350 357
317 314 310 324 337 342 344 312 9 3 338 354 354 353 5 8 356 353 351 352 350 351 356 352 351 356 -0 3 11 6 330 322 313 306 301 294 290 295 308 310 315 328 342 345 352
313 311 309 339 339 345 320 338 350 340 341 345 353 358 357 347 344 354 351 351 354 351 352 348 351 356 358 1 350 349 337 322 314 312 304 295 289 296 299 304 317 333 342 346 353
311 307 325 339 334 338 336 339 332 336 336 336 339 350 356 352 346 343 345 344 346 341 334 334 342 342 352 355 349 350 339 323 315 311 309 306 306 299 305 309 314 327 338 344 348
307 312 340 338 324 330 346 334 330 344 329 331 324 341 351 357 338 340 346 345 345 356 355 348 344 341 339 353 349 347 340 334 323 316 310 312 311 310 323 335 336 338 340 341 339
306 324 338 330 21 337 337 320 336 357 325 320 336 333 330 334 344 336 334 345 337 344 356 353 353 350 351 353 352 351 342 348 338 329 318 322 319 321 325 327 332 332 332 330 331
321 326 328 319 21 344 326 315 328 345 322 328 335 330 329 322 322 326 329 337 343 345 358 1 354 353 354 351 350 350 3 341 338 325 315 320 316 315 304 310 315 318 322 325 327
347 337 340 328 337 331 312 308 313 328 331 327 327 329 334 331 323 315 323 328 333 345 354 356 357 354 349 340 330 333 336 341 350 347 336 327 321 328 320 320 318 321 324 324 323
346 343 335 349 329 326 317 322 316 316 329 328 330 329 327 326 323 320 318 319 321 337 345 355 354 350 347 337 349 350 339 341 335 337 337 334 331 345 332 324 321 321 322 323 323
329 335 344 347 331 328 322 320 319 316 321 324 323 324 327 321 316 321 322 320 326 337 347 359 349 348 343 330 338 330 333 342 343 336 328 326 326 333 330 328 325 324 326 326 326
334 323 328 337 342 336 325 334 345 328 321 330 330 326 324 322 323 320 318 321 330 346 353 358 351 346 332 331 335 328 327 332 334 325 325 323 325 326 325 325 326 325 326 327 327
332 324 329 315 319 320 328 329 331 343 327 324 326 326 323 318 320 322 327 330 330 337 347 353 349 348 342 342 342 340 333 334 333 332 325 325 328 331 330 328 327 329 329 328 330
327 322 316 312 314 316 323 325 323 336 329 316 322 330 331 322 320 321 323 320 325 333 344 348 345 343 338 342 339 340 346 349 345 345 342 343 339 347 342 338 333 332 332 331 333
335 334 321 309 310 311 314 315 319 332 331 326 332 324 327 333 333 328 325 327 328 334 342 344 346 335 329 339 339 337 341 345 346 347 346 338 343 347 339 337 337 338 338 336 336